Location: La Brionne
(46.1728°N, 1.7849°E)
Time: 13:24:34
(UTC+00:00)

Cosmos 2219 Rocket - Pass Details

Date: 27 October 2021
Orbit: 826 x 848 km, 71.0° (Epoch: 01 December)

Event Time Altitude Azimuth Distance (km) Brightness Sun altitude
Exits shadow 02:31:53 14° 15° (NNE) 2,199 4.7 -40.4°
Maximum altitude 02:34:02 17° 41° (NE) 2,031 4.7 -40.0°
Drops below altitude 10° 02:37:35 10° 80° (E) 2,468 5.3 -39.5°
Sets 02:40:59 0° 101° (E) 3,403 6.0 -39.0°
